Showing default

GALILEO 23 (2C9), 43566

Orbit data source: Space-Track

GALILEO 23 (2C9), 43566 is a payload satellite owned by GNSS Agency (ESA) that was launched on Wed, 25 Jul 2018 UTC via an ARIANE 5ES launch vehicle from the French Guiana (FRGUI). Payload-class satellites include a variety of spacecraft equipped with specific instruments for various scientific and technological missions. These include communications satellites like Starlink; space stations such as the ISS; scientific satellites like the Hubble; Earth observation satellites from companies like Planet Labs, Umbra, and HawkEye 360; GPS; miniature CubeSats for education and research; and military/defense satellites.

Loading next visibility...
Identifier
43566, 2018-060C
Orbit
Active
Country
Flag of ESAESA
Related business
Manufacturer
OHB
Mission
Operational Civil Navigation
Bus & Motor
GALILEOSAT, AOCS
Mass
715 kg wet, 700 kg dry
Launch date (UTC)
2018-07-25 (8 years ago)
Launch vehicle
ARIANE 5ES
Launch site
French Guiana (FRGUI)
Object type
Payload
Rocket body
Debris
Shape & HBR
Box + 2 Pan, 7.3 m
Radar Cross Section
9.223 m², Large (>1 m²)

Expand to show TLE details & history
Last TLE update: 2 days ago

TLE from 2 days ago
0 GALILEO 23 (2C9)
1 43566U 18060C   26171.43843957 -.00000095  00000-0  00000+0 0  9993
2 43566  57.1711 341.6976 0001949 321.5861  38.3948  1.70475997 49246
Epoch: 2026-06-20T10:31Z
TLE epoch observation values (Epoch: 2026-06-20T10:31:21.178Z)
Latitude
-0.00002°
Longitude
-84.80443°
Altitude
23,217.751 km
Speed
3.67 km/s
True Right ascension
22h 46m 44s
True Declination
0° 00' 00"
Sunlit
Object was in daylight at epoch
Visualization orbit readout
Latitude
Unknown
Longitude
Unknown
Altitude
Unknown
Speed
Unknown
Apparent Right ascension
Unknown
Apparent Declination
Unknown
Sunlit
N/A
Visualization observer readout
Local Sidereal Time
21:24:45
Azimuth
Unknown
Elevation
Unknown
Doppler factor
Unknown
Orbital elements
Apogee altitude
23,227.651 km
Perigee altitude
23,216.113 km
Semi-major axis
29,600.019 km
Eccentricity
0.00019
Inclination
57.1711°
RAAN
341.6976°
Arg. of periapsis
321.5861°
True anomaly
38.40867°
Mean anomaly
38.3948°
Eccentric anomaly
38.40174°
Mean motion
0.42619 °/min
Orbital period
844.69 mins
BSTAR
0
Loading maneuver chart data...
Computing Atmospheric mass density...
Loading historical data...
Loading historical data...
Loading historical data...
Loading historical data...
Loading historical data...
Loading historical data...
Loading historical data...
Other satellites on launch #60 in the year 2018 (2018-07-25 UTC)

Documentation

Showing up to 5 results
|